Location: Unspecified
(0.0000°N, 0.0000°E)
Time: 08:33:25
(UTC+00:00)

Tiros 1 despin weight - Pass Details

Date: 09 October 2023
Orbit: 583 x 627 km, 48.2° (Epoch: 05 December)

Event Time Altitude Azimuth Distance (km) Brightness Sun altitude
Rises 11:29:32 0° 184° (S) 2,899 ? 82.3°
Maximum altitude 11:35:04 12° 131° (SE) 1,871 ? 83.0°
Drops below altitude 10° 11:36:48 10° 108° (ESE) 1,999 ? 83.2°
Sets 11:40:35 0° 77° (ENE) 2,904 ? 83.5°
